Location: Bernadets
(43.3537°N, 0.3167°E)
Time: 01:07:05
(UTC+00:00)

Okean O Rocket - Pass Details

Date: 24 October 2021
Orbit: 623 x 644 km, 98.2° (Epoch: 06 December)

Event Time Altitude Azimuth Distance (km) Brightness Sun altitude
Rises 17:33:58 0° 144° (SE) 2,893 4.7 -6.6°
Reaches altitude 10° 17:36:15 10° 136° (SE) 1,992 3.8 -7.0°
Maximum altitude 17:40:14 37° 70° (ENE) 981 2.1 -7.7°
Drops below altitude 10° 17:44:15 10° 3° (N) 2,013 4.1 -8.5°
Sets 17:46:34 0° 355° (N) 2,928 5.0 -8.9°
